sat.trackr.live / text

‹ back to catalog

NUSAT-50 (NANCY ROMAN)

NORAD 60493 · 2024-149AB

PAYLOAD ACTIVE UNKNOWN

§ Identity

Operator
Country
ARGN
Launch date
2024-08-16
Launch site
AFWTR
Launch vehicle
Mass (kg)
RCS (m²)

External: N2YO · Heavens-Above · Gunter

§ Orbital elements

Epoch: 2026-05-24T22:41:16.810944Z

Period
94.16 min
Inclination
97.3788°
Eccentricity
0.0001719
Mean motion
15.29387750 rev/d
Perigee alt
476.5 km
Apogee alt
478.8 km
Semi-major
6,855.8 km
B*
2.8831e-4
RAAN
226.3711°
Arg perigee
280.3338°
Mean anomaly
79.7709°
Rev number
9,857

§ Raw data

NUSAT-50 (NANCY ROMAN)1 60493U 24149AB  26144.94533346  .00008142  00000+0  28831-3 0  99952 60493  97.3788 226.3711 0001719 280.3338  79.7709 15.29387750 98578

JSON: /api/v1/satellites/60493 · /tle

For live sub-satellite position, see the globe view (requires WebGL).

§ Visibility from observer

Set your observer location to see the next 7 days of passes ≥ 10°. The values pass through the URL so the page stays shareable.

No JS? Fill the form by hand. The geolocation button needs JavaScript.